| time (UTC) | temp F | wind direction | speed knots | gust knots | rain 1hr in | rain 24hr in | rain mn in | humidity % | barometer mb |
| 20260509141227 | 56 | 197 | 0.9 | 5.2 | 0.00 | 0.00 | 0.00 | 82 | 1006.7 |
| 20260509140202 | 56 | 197 | 0.9 | 4.3 | 0.00 | 0.00 | 0.00 | 83 | 1006.8 |
| 20260509135202 | 55 | 222 | 0.9 | 3.5 | 0.00 | 0.00 | 0.00 | 83 | 1006.8 |
| 20260509134202 | 55 | 252 | 1.7 | 3.5 | 0.00 | 0.00 | 0.00 | 84 | 1006.9 |
| 20260509133204 | 55 | 207 | 2.6 | 5.2 | 0.00 | 0.00 | 0.00 | 84 | 1006.9 |
| 20260509132203 | 55 | 204 | 0.9 | 6.1 | 0.00 | 0.00 | 0.00 | 85 | 1006.9 |
| 20260509131204 | 54 | 238 | 0.0 | 0.9 | 0.00 | 0.00 | 0.00 | 86 | 1007.0 |
| 20260509130225 | 53 | 199 | 0.0 | 0.0 | 0.00 | 0.00 | 0.00 | 86 | 1006.9 |
| 20260509125202 | 52 | 200 | 0.0 | 0.0 | 0.00 | 0.00 | 0.00 | 87 | 1007.0 |
| 20260509124204 | 52 | 190 | 0.0 | 1.7 | 0.00 | 0.00 | 0.00 | 88 | 1007.2 |
| 20260509123203 | 51 | 175 | 0.9 | 3.5 | 0.00 | 0.00 | 0.00 | 88 | 1007.2 |
| 20260509122202 | 50 | 197 | 0.0 | 0.0 | 0.00 | 0.00 | 0.00 | 89 | 1007.3 |
| 20260509121202 | 50 | 246 | 0.0 | 0.9 | 0.00 | 0.00 | 0.00 | 90 | 1007.4 |
| 20260509120202 | 49 | 258 | 0.0 | 0.9 | 0.00 | 0.01 | 0.00 | 90 | 1007.6 |
| 20260509115223 | 47 | 267 | 0.0 | 0.9 | 0.00 | 0.01 | 0.00 | 90 | 1007.4 |
| 20260509114224 | 46 | 283 | 0.0 | 0.0 | 0.00 | 0.01 | 0.00 | 90 | 1007.4 |
| 20260509113225 | 44 | 283 | 0.0 | 0.0 | 0.00 | 0.02 | 0.00 | 89 | 1007.4 |
| 20260509112203 | 43 | 283 | 0.0 | 0.9 | 0.00 | 0.04 | 0.00 | 89 | 1007.3 |
| 20260509111224 | 42 | 248 | 0.0 | 0.0 | 0.00 | 0.05 | 0.00 | 89 | 1007.5 |
| 20260509110202 | 42 | 248 | 0.0 | 0.0 | 0.00 | 0.07 | 0.00 | 88 | 1007.6 |
| 20260509105204 | 41 | 232 | 0.0 | 0.0 | 0.00 | 0.07 | 0.00 | 88 | 1007.7 |
| 20260509104223 | 40 | 232 | 0.0 | 0.0 | 0.00 | 0.07 | 0.00 | 87 | 1007.8 |
| 20260509103203 | 40 | 232 | 0.0 | 0.0 | 0.00 | 0.08 | 0.00 | 87 | 1007.6 |
| 20260509102202 | 40 | 232 | 0.0 | 0.0 | 0.00 | 0.08 | 0.00 | 86 | 1007.6 |
| 20260509101203 | 40 | 232 | 0.0 | 0.0 | 0.00 | 0.08 | 0.00 | 86 | 1007.6 |
| 20260509100202 | 40 | 232 | 0.0 | 0.0 | 0.00 | 0.08 | 0.00 | 86 | 1007.4 |
| 20260509095225 | 40 | 232 | 0.0 | 0.0 | 0.00 | 0.09 | 0.00 | 85 | 1007.5 |
| 20260509094202 | 40 | 232 | 0.0 | 0.0 | 0.00 | 0.09 | 0.00 | 85 | 1007.6 |
| 20260509093202 | 40 | 232 | 0.0 | 0.0 | 0.00 | 0.09 | 0.00 | 85 | 1007.5 |
| 20260509092202 | 40 | 232 | 0.0 | 0.0 | 0.00 | 0.09 | 0.00 | 85 | 1007.6 |
| 20260509091204 | 40 | 232 | 0.0 | 0.0 | 0.00 | 0.09 | 0.00 | 84 | 1007.5 |
| 20260509090226 | 40 | 232 | 0.0 | 0.0 | 0.00 | 0.09 | 0.00 | 84 | 1007.7 |
| 20260509085203 | 40 | 232 | 0.0 | 0.0 | 0.00 | 0.09 | 0.00 | 84 | 1007.7 |
| 20260509083223 | 41 | 232 | 0.0 | 0.0 | 0.00 | 0.09 | 0.00 | 84 | 1007.8 |
| 20260509082226 | 41 | 232 | 0.0 | 0.0 | 0.00 | 0.09 | 0.00 | 84 | 1007.8 |
| 20260509081224 | 40 | 232 | 0.0 | 0.0 | 0.00 | 0.09 | 0.00 | 84 | 1007.8 |
| 20260509075203 | 40 | 232 | 0.0 | 0.0 | 0.00 | 0.09 | 0.00 | 83 | 1007.9 |
| 20260509074202 | 40 | 232 | 0.0 | 0.0 | 0.00 | 0.09 | 0.00 | 83 | 1008.1 |
| 20260509073204 | 40 | 232 | 0.0 | 0.0 | 0.00 | 0.09 | 0.00 | 83 | 1008.1 |
| 20260509072203 | 39 | 232 | 0.0 | 0.0 | 0.00 | 0.09 | 0.00 | 83 | 1008.2 |
| 20260509071203 | 39 | 232 | 0.0 | 0.0 | 0.00 | 0.09 | 0.00 | 83 | 1008.3 |
| 20260509070202 | 39 | 232 | 0.0 | 0.0 | 0.00 | 0.09 | 0.00 | 82 | 1008.3 |
| 20260509065202 | 39 | 232 | 0.0 | 0.0 | 0.00 | 0.09 | 0.00 | 82 | 1008.4 |
| 20260509064202 | 39 | 232 | 0.0 | 0.0 | 0.00 | 0.09 | 0.00 | 82 | 1008.6 |
| 20260509063202 | 39 | 232 | 0.0 | 0.0 | 0.00 | 0.09 | 0.00 | 82 | 1008.7 |
| 20260509062225 | 39 | 232 | 0.0 | 0.0 | 0.00 | 0.09 | 0.00 | 81 | 1008.8 |
| 20260509061224 | 39 | 232 | 0.0 | 0.0 | 0.00 | 0.09 | 0.00 | 82 | 1008.9 |
| 20260509060204 | 39 | 232 | 0.0 | 0.0 | 0.00 | 0.09 | 0.00 | 81 | 1009.2 |
| 20260509055203 | 39 | 232 | 0.0 | 0.0 | 0.00 | 0.09 | 0.00 | 81 | 1009.3 |
| 20260509054203 | 39 | 232 | 0.0 | 0.0 | 0.00 | 0.09 | 0.00 | 80 | 1009.4 |
| 20260509053225 | 40 | 232 | 0.0 | 0.0 | 0.00 | 0.09 | 0.00 | 80 | 1009.4 |
| 20260509052202 | 40 | 232 | 0.0 | 0.0 | 0.00 | 0.09 | 0.00 | 79 | 1009.4 |
| 20260509051203 | 40 | 232 | 0.0 | 0.0 | 0.00 | 0.09 | 0.00 | 79 | 1009.6 |
| 20260509050202 | 40 | 232 | 0.0 | 0.0 | 0.00 | 0.09 | 0.00 | 78 | 1009.7 |
| 20260509045202 | 40 | 232 | 0.0 | 0.0 | 0.00 | 0.09 | 0.00 | 78 | 1009.8 |
| 20260509044203 | 40 | 232 | 0.0 | 0.0 | 0.00 | 0.09 | 0.00 | 78 | 1009.8 |
| 20260509043202 | 40 | 232 | 0.0 | 0.0 | 0.00 | 0.09 | 0.00 | 78 | 1010.0 |
| 20260509042226 | 40 | 232 | 0.0 | 0.0 | 0.00 | 0.09 | 0.00 | 77 | 1010.1 |
| 20260509041203 | 40 | 232 | 0.0 | 0.0 | 0.00 | 0.09 | 0.00 | 75 | 1010.1 |
| 20260509040205 | 40 | 232 | 0.0 | 0.0 | 0.00 | 0.09 | 0.00 | 75 | 1010.1 |
| 20260509035225 | 40 | 232 | 0.0 | 0.0 | 0.00 | 0.09 | 0.09 | 74 | 1010.2 |
| 20260509034202 | 40 | 232 | 0.0 | 0.0 | 0.00 | 0.09 | 0.09 | 73 | 1010.3 |
| 20260509033203 | 40 | 232 | 0.0 | 0.0 | 0.00 | 0.09 | 0.09 | 72 | 1010.3 |
| 20260509032202 | 41 | 232 | 0.0 | 0.0 | 0.00 | 0.09 | 0.09 | 71 | 1010.4 |
| 20260509031204 | 41 | 232 | 0.0 | 0.0 | 0.00 | 0.09 | 0.09 | 71 | 1010.5 |
| 20260509030202 | 41 | 232 | 0.0 | 0.0 | 0.00 | 0.09 | 0.09 | 70 | 1010.6 |
| 20260509025224 | 42 | 232 | 0.0 | 0.0 | 0.00 | 0.10 | 0.09 | 70 | 1010.6 |
| 20260509024202 | 42 | 232 | 0.0 | 0.0 | 0.00 | 0.10 | 0.09 | 68 | 1010.6 |
| 20260509023203 | 43 | 232 | 0.0 | 0.0 | 0.00 | 0.10 | 0.09 | 68 | 1010.6 |
| 20260509022204 | 43 | 232 | 0.0 | 0.0 | 0.00 | 0.10 | 0.09 | 68 | 1010.7 |
| 20260509021202 | 44 | 232 | 0.0 | 0.0 | 0.00 | 0.10 | 0.09 | 67 | 1010.6 |
| 20260509020203 | 44 | 232 | 0.0 | 0.0 | 0.00 | 0.10 | 0.09 | 66 | 1010.5 |
| 20260509015202 | 45 | 232 | 0.0 | 0.0 | 0.00 | 0.11 | 0.09 | 65 | 1010.3 |
| 20260509014246 | 45 | 232 | 0.0 | 0.0 | 0.00 | 0.13 | 0.09 | 63 | 1010.3 |
| 20260509013203 | 46 | 232 | 0.0 | 0.0 | 0.00 | 0.13 | 0.09 | 62 | 1010.3 |
| 20260509012205 | 46 | 232 | 0.0 | 0.0 | 0.00 | 0.15 | 0.09 | 55 | 1010.2 |
| 20260509011203 | 47 | 232 | 0.0 | 0.0 | 0.00 | 0.17 | 0.09 | 56 | 1010.2 |
| 20260509010203 | 48 | 232 | 0.0 | 0.0 | 0.00 | 0.19 | 0.09 | 56 | 1010.2 |
| 20260509005202 | 49 | 232 | 0.0 | 0.0 | 0.00 | 0.20 | 0.09 | 50 | 1010.2 |
| 20260509004204 | 50 | 232 | 0.0 | 0.0 | 0.00 | 0.20 | 0.09 | 52 | 1010.2 |
| 20260509003203 | 51 | 232 | 0.0 | 0.0 | 0.00 | 0.20 | 0.09 | 51 | 1010.2 |
| 20260509002223 | 52 | 232 | 0.0 | 0.0 | 0.00 | 0.20 | 0.09 | 50 | 1010.0 |
| 20260509001204 | 52 | 232 | 0.0 | 0.0 | 0.00 | 0.20 | 0.09 | 47 | 1010.0 |
| 20260509000204 | 53 | 232 | 0.0 | 0.0 | 0.00 | 0.20 | 0.09 | 45 | 1009.9 |
| 20260508235202 | 53 | 232 | 0.0 | 0.0 | 0.00 | 0.20 | 0.09 | 42 | 1009.9 |
| 20260508234203 | 53 | 231 | 0.0 | 2.6 | 0.00 | 0.20 | 0.09 | 42 | 1009.8 |
| 20260508233202 | 54 | 231 | 0.0 | 3.5 | 0.00 | 0.20 | 0.09 | 45 | 1009.8 |
| 20260508232202 | 54 | 281 | 0.0 | 1.7 | 0.00 | 0.20 | 0.09 | 46 | 1009.8 |
| 20260508231202 | 55 | 280 | 0.0 | 5.2 | 0.00 | 0.20 | 0.09 | 49 | 1009.8 |
| 20260508230203 | 54 | 220 | 0.9 | 3.5 | 0.00 | 0.20 | 0.09 | 46 | 1009.8 |
| 20260508225205 | 54 | 220 | 1.7 | 4.3 | 0.00 | 0.20 | 0.09 | 46 | 1009.8 |
| 20260508224225 | 55 | 161 | 2.6 | 4.3 | 0.00 | 0.20 | 0.09 | 46 | 1009.8 |
| 20260508223203 | 55 | 200 | 0.0 | 3.5 | 0.00 | 0.20 | 0.09 | 47 | 1009.9 |
| 20260508222226 | 55 | 222 | 0.9 | 3.5 | 0.00 | 0.20 | 0.09 | 48 | 1009.9 |
| 20260508221203 | 55 | 218 | 1.7 | 3.5 | 0.00 | 0.20 | 0.09 | 47 | 1009.9 |
| 20260508220204 | 55 | 217 | 2.6 | 4.3 | 0.00 | 0.20 | 0.09 | 47 | 1010.0 |
| 20260508215203 | 55 | 302 | 1.7 | 4.3 | 0.00 | 0.20 | 0.09 | 47 | 1010.0 |
| 20260508214223 | 55 | 275 | 2.6 | 5.2 | 0.00 | 0.20 | 0.09 | 48 | 1010.1 |
| 20260508213226 | 56 | 291 | 3.5 | 8.7 | 0.00 | 0.20 | 0.09 | 47 | 1010.0 |
| 20260508212204 | 56 | 283 | 1.7 | 5.2 | 0.00 | 0.20 | 0.09 | 50 | 1010.0 |
| 20260508211203 | 56 | 203 | 1.7 | 6.1 | 0.00 | 0.20 | 0.09 | 46 | 1010.0 |
| 20260508210203 | 56 | 236 | 1.7 | 7.0 | 0.00 | 0.20 | 0.09 | 48 | 1010.0 |
| 20260508205203 | 56 | 298 | 6.1 | 9.6 | 0.00 | 0.20 | 0.09 | 44 | 1010.0 |
| 20260508204202 | 56 | 285 | 3.5 | 7.0 | 0.00 | 0.20 | 0.09 | 49 | 1010.1 |
| 20260508203203 | 56 | 272 | 1.7 | 6.1 | 0.00 | 0.20 | 0.09 | 48 | 1010.1 |
| 20260508202202 | 56 | 250 | 2.6 | 6.1 | 0.00 | 0.20 | 0.09 | 54 | 1010.2 |
| 20260508201224 | 56 | 191 | 1.7 | 5.2 | 0.00 | 0.20 | 0.09 | 52 | 1010.3 |
| 20260508200204 | 57 | 207 | 1.7 | 6.1 | 0.00 | 0.20 | 0.09 | 51 | 1010.4 |
| 20260508195202 | 57 | 249 | 1.7 | 10.4 | 0.00 | 0.20 | 0.09 | 52 | 1010.6 |
| 20260508194202 | 56 | 125 | 2.6 | 5.2 | 0.00 | 0.20 | 0.09 | 55 | 1010.7 |
| 20260508193202 | 56 | 198 | 2.6 | 5.2 | 0.00 | 0.20 | 0.09 | 55 | 1010.8 |
| 20260508192225 | 57 | 247 | 3.5 | 7.0 | 0.00 | 0.20 | 0.09 | 53 | 1011.0 |
| 20260508191202 | 57 | 284 | 3.5 | 10.4 | 0.00 | 0.20 | 0.09 | 55 | 1011.0 |
| 20260508190204 | 57 | 276 | 0.9 | 7.8 | 0.00 | 0.20 | 0.09 | 58 | 1011.2 |
| 20260508185203 | 57 | 263 | 4.3 | 8.7 | 0.00 | 0.20 | 0.09 | 58 | 1011.3 |
| 20260508184202 | 56 | 313 | 2.6 | 5.2 | 0.00 | 0.20 | 0.09 | 60 | 1011.4 |
| 20260508183203 | 56 | 250 | 3.5 | 9.6 | 0.00 | 0.20 | 0.09 | 57 | 1011.4 |
| 20260508182202 | 56 | 270 | 1.7 | 7.0 | 0.00 | 0.20 | 0.09 | 59 | 1011.4 |
| 20260508181225 | 55 | 252 | 0.9 | 7.8 | 0.00 | 0.20 | 0.09 | 59 | 1011.4 |
| 20260508180202 | 56 | 321 | 3.5 | 9.6 | 0.00 | 0.20 | 0.09 | 60 | 1011.5 |
| 20260508175202 | 54 | 267 | 1.7 | 5.2 | 0.00 | 0.20 | 0.09 | 62 | 1011.4 |
| 20260508174203 | 53 | 282 | 4.3 | 7.0 | 0.00 | 0.20 | 0.09 | 59 | 1011.5 |
| 20260508173203 | 53 | 169 | 0.9 | 6.1 | 0.00 | 0.20 | 0.09 | 62 | 1011.7 |
| 20260508172203 | 53 | 279 | 3.5 | 7.0 | 0.00 | 0.20 | 0.09 | 61 | 1011.8 |
| 20260508171202 | 53 | 252 | 1.7 | 9.6 | 0.00 | 0.20 | 0.09 | 61 | 1011.8 |
| 20260508170203 | 53 | 340 | 1.7 | 9.6 | 0.00 | 0.20 | 0.09 | 57 | 1011.9 |
| 20260508165202 | 53 | 296 | 3.5 | 8.7 | 0.00 | 0.20 | 0.09 | 58 | 1011.9 |
| 20260508164224 | 53 | 344 | 3.5 | 11.3 | 0.00 | 0.20 | 0.09 | 61 | 1012.0 |
| 20260508163202 | 53 | 311 | 5.2 | 9.6 | 0.00 | 0.20 | 0.09 | 59 | 1012.2 |
| 20260508162202 | 52 | 302 | 5.2 | 13.0 | 0.00 | 0.20 | 0.09 | 65 | 1012.3 |
| 20260508161202 | 52 | 296 | 5.2 | 7.8 | 0.00 | 0.20 | 0.09 | 70 | 1012.4 |
| 20260508160202 | 51 | 289 | 3.5 | 11.3 | 0.00 | 0.20 | 0.09 | 67 | 1012.5 |
| 20260508155203 | 50 | 282 | 4.3 | 10.4 | 0.00 | 0.20 | 0.09 | 72 | 1012.3 |
| 20260508154203 | 50 | 293 | 5.2 | 7.8 | 0.00 | 0.20 | 0.09 | 73 | 1012.6 |
| 20260508153203 | 49 | 319 | 3.5 | 10.4 | 0.00 | 0.20 | 0.09 | 77 | 1012.7 |
| 20260508152202 | 49 | 301 | 4.3 | 8.7 | 0.00 | 0.20 | 0.09 | 80 | 1012.8 |
| 20260508151204 | 48 | 317 | 1.7 | 4.3 | 0.00 | 0.20 | 0.09 | 85 | 1012.8 |
| 20260508150202 | 47 | 309 | 2.6 | 7.0 | 0.00 | 0.20 | 0.09 | 86 | 1012.8 |
| 20260508145203 | 46 | 257 | 0.9 | 7.0 | 0.00 | 0.20 | 0.09 | 89 | 1012.7 |
| 20260508144202 | 45 | 304 | 2.6 | 7.0 | 0.00 | 0.20 | 0.09 | 90 | 1012.8 |
| 20260508143202 | 44 | 292 | 2.6 | 4.3 | 0.00 | 0.20 | 0.09 | 91 | 1012.8 |
| 20260508142203 | 44 | 279 | 1.7 | 6.1 | 0.00 | 0.20 | 0.09 | 92 | 1012.7 |